Location: Beaver Brook Station
(42.3793°N, 71.2203°W)
Time: 00:46:11
(UTC+00:00)

Cosmos 1812 Rocket - Pass Details

Date: 29 October 2020
Orbit: 605 x 632 km, 82.5° (Epoch: 05 December)

Event Time Altitude Azimuth Distance (km) Brightness Sun altitude
Rises 23:48:16 0° 199° (SSW) 2,890 7.2 -23.9°
Reaches altitude 10° 23:50:33 10° 205° (SSW) 1,984 6.4 -24.4°
Maximum altitude 23:54:49 50° 281° (W) 789 4.4 -25.2°
Drops below altitude 10° 23:59:05 10° 358° (N) 1,982 6.2 -25.9°
Sets 00:01:22 0° 3° (N) 2,888 7.0 -26.4°
